[[{"header":{"parameterUnit":"m.s-1","parameterCategory":1,"la1":30.2991,"la2":30.254,"lo1":-89.0895,"lo2":-89.0444,"dy":0.0017,"dx":0.0017,"nx":28,"ny":28,"refTime":"2025-07-06T21:00:00:Z","depth":0,"parameterNumber":2,"parameterNumberName":"U-component_of_WINDS"},"data":[0,0,0,0,0,0,0,0,0,0,0,0,0,0,0,0,0,0,0,0,0,0,0,0,0,0,0,0,0,0,0,0,0,0,0,0,0,0,0,0,0,0,0,0,0,0,0,0,0,0,0,0,0,0,0,0,0,0,3.899,3.8991,0,3.9149,3.9151,3.9153,3.9115,3.9112,3.9109,3.9106,3.9272,3.9279,3.9286,0,0,0,0,0,0,0,0,0,0,0,0,0,3.8651,3.8658,3.899,3.8992,3.8994,3.9149,3.9151,3.9154,3.9116,3.9112,3.9108,3.9105,3.927,3.9278,3.9287,0,0,0,0,0,0,0,0,0,0,0,0,0,3.8803,3.866,3.8989,3.8993,3.8995,3.9149,3.9151,3.9154,3.9117,3.9112,3.9107,3.9103,3.9267,3.9277,3.9288,3.9448,0,0,3.9322,3.9326,0,0,0,0,0,0,0,0,3.8795,3.8816,3.8991,3.8993,3.8996,3.9108,3.9093,3.9253,3.9118,3.9071,3.9106,3.9101,3.9221,3.9236,3.9276,3.9456,3.9463,3.9322,3.9329,3.9334,3.9337,0,0,0,0,0,0,0,3.8784,3.8809,3.9053,3.8993,3.8997,3.8987,3.9004,3.9123,3.917,3.9074,3.9072,3.9091,3.9222,3.9265,3.9279,3.9465,3.9322,3.9332,3.9339,3.9343,3.978,3.9785,0,0,0,0,0,0,3.8772,3.88,3.9048,3.9058,3.8882,3.8997,3.9015,3.9077,3.9169,3.9178,3.9095,3.9089,3.9249,3.9267,3.9285,3.9475,3.9334,3.9344,3.935,3.9775,3.9781,3.9786,0,0,0,0,0,0,3.8764,3.8794,3.9041,3.8928,3.8959,3.9008,3.9077,3.9082,3.9126,3.9184,3.9192,3.9131,3.9246,3.927,3.9407,3.948,3.9349,3.9359,3.9769,3.9777,3.9784,3.9859,0,0,0,0,0,0,3.8755,3.8792,3.8853,3.893,3.8965,3.9161,3.9081,3.9089,3.9144,3.9138,3.922,3.9229,3.9244,3.939,3.9417,3.9493,3.9367,3.9762,3.9772,3.9781,3.985,3.9868,3.9883,0,0,0,0,0,3.8743,3.8869,3.8857,3.8887,3.9043,3.9165,3.9185,3.9199,3.9151,3.9212,3.9249,3.9227,3.9468,3.9405,3.9435,3.9515,3.9758,3.9769,3.9781,3.9842,3.9864,3.9883,0,0,0,0,0,0,3.8802,3.888,3.8866,3.9021,3.9087,3.9158,3.9237,3.9223,3.9304,3.9295,3.9309,3.9328,3.9467,3.9505,3.9433,3.9672,3.9606,3.9624,3.9642,3.9664,3.968,3.9668,3.9376,0,0,0,0,0,3.8832,3.8925,3.8988,3.9119,3.9152,3.9189,3.9243,3.9247,3.9316,3.9344,3.9391,3.9458,3.9549,3.9609,3.9696,3.9855,3.9871,3.9925,3.9941,3.9955,3.997,4.0053,4.0077,3.9824,3.9824,3.9823,0,0,3.8898,3.8951,3.9009,3.9132,3.9183,3.9277,3.9212,3.9316,3.9386,3.936,3.9491,3.9527,3.9604,3.9751,3.9819,3.9787,4.0043,3.9969,3.998,3.9988,4.0068,4.0092,4.0113,3.9831,3.983,3.9829,0,0,3.9064,3.9115,3.9227,3.9279,3.9356,3.938,3.9407,3.948,3.9503,3.9634,3.9615,3.9699,3.9856,3.991,3.9958,4.0141,4.0122,4.0169,4.0256,4.0337,4.0357,4.0375,4.0438,4.046,4.0184,4.0184,4.0184,0,3.9135,3.9276,3.9287,3.9392,3.9445,3.9423,3.9537,3.9587,3.9689,3.9726,3.9689,3.9883,3.9933,4.0091,4.0135,4.0176,4.0206,4.0159,4.0353,4.0371,4.0388,4.0448,4.0472,4.0189,4.0188,4.0188,4.0187,0,3.9358,3.9456,3.9538,3.9635,3.9698,3.9806,3.9833,3.9895,3.9894,3.992,4.0053,4.0112,4.0209,4.0247,4.0248,4.0405,4.0382,4.035,4.0283,4.0417,4.0473,4.0497,4.0196,4.0194,4.0193,4.0192,0,0,3.9568,3.9667,3.9696,3.9739,3.9821,3.9897,4.0003,4.0097,4.0148,4.0219,4.0307,4.0439,4.0408,4.0462,4.0469,4.054,4.0677,4.0498,4.05,4.0527,4.0851,4.0874,4.09,4.0666,4.067,4.0674,4.0843,0,3.9739,3.9926,3.9937,4.0106,4.0195,4.0174,4.0267,4.0327,4.0354,4.0433,4.0464,4.0555,4.0509,4.0541,4.0611,4.0646,4.0742,4.0634,4.0747,4.0751,4.0727,4.093,4.0956,4.1113,4.0866,4.087,4.0872,0,3.9965,4.004,4.0217,4.0283,4.0321,4.0404,4.0488,4.0565,4.0631,4.0646,4.0705,4.07,4.0808,4.0738,4.0885,4.0811,4.0858,4.0882,4.0888,4.0898,4.0819,4.0944,4.1164,4.1187,4.0908,4.0905,4.0902,0,4.0097,4.0242,4.0366,4.0403,4.0484,4.0542,4.0579,4.0641,4.0695,4.0769,4.0803,4.089,4.0937,4.1003,4.1021,4.0969,4.1168,4.11,4.1182,4.1181,4.1224,4.1221,4.1453,4.1257,4.1257,4.1256,4.1256,0,4.0286,4.0395,4.0425,4.0501,4.0621,4.0633,4.0752,4.0784,4.0839,4.092,4.0909,4.0985,4.1005,4.1085,4.11,4.1218,4.1241,4.1254,4.1257,4.1254,4.1252,4.1284,4.1273,4.1262,4.1261,4.126,4.1259,0,4.0454,4.0479,4.0612,4.0676,4.0695,4.078,4.0835,4.0908,4.0932,4.1035,4.106,4.1098,4.1191,4.1216,4.1328,4.1338,4.1476,4.147,4.1453,4.1453,4.1532,4.1523,4.1792,4.1826,4.161,4.1612,4.1613,0,4.0573,4.0655,4.0727,4.078,4.0818,4.0904,4.0958,4.0972,4.1029,4.1109,4.1171,4.1263,4.1336,4.1486,4.1524,4.1609,4.1603,4.169,4.1615,4.1609,4.1601,4.1595,4.1602,4.1704,4.1707,4.1709,4.171,0,4.078,4.0787,4.0865,4.0947,4.1011,4.1077,4.114,4.1184,4.1206,4.127,4.1364,4.1421,4.1534,4.1624,4.1709,4.1746,4.1732,4.1733,4.1756,4.1754,4.174,4.1746,4.149,4.1727,4.1725,4.1724,4.1723,4.1723,4.0925,4.0996,4.1056,4.1143,4.1191,4.1249,4.1319,4.1351,4.1429,4.152,4.1524,4.1625,4.1687,4.1799,4.1841,4.192,4.1894,4.1928,4.1936,4.1944,4.1949,4.1729,4.1936,4.1936,4.1935,4.1935,4.1934,0,4.1129,4.1166,4.1246,4.1332,4.14,4.1379,4.1446,4.1504,4.1593,4.1651,4.1723,4.1829,4.1915,4.1959,4.2044,4.2099,4.2094,4.2121,4.2116,4.2124,4.1969,4.194,4.2123,4.2123,4.2123,4.2123,4.2123,4.2122,4.1243,4.1361,4.1375,4.1515,4.1552,4.165,4.1689,4.1742,4.1788,4.1907,4.1978,4.2005,4.2057,4.2145,4.2222,4.2233,4.2264,4.2294,4.23,4.2155,4.2136,4.2117,4.2089,4.2301,4.2301,4.2448,4.245,4.2451]},{"header":{"parameterUnit":"m.s-1","parameterCategory":1,"la1":30.2991,"la2":30.254,"lo1":-89.0895,"lo2":-89.0444,"dy":0.0017,"dx":0.0017,"nx":28,"ny":28,"refTime":"2025-07-06T21:00:00:Z","depth":0,"parameterNumber":3,"parameterNumberName":"V-component_of_WINDS"},"data":[0,0,0,0,0,0,0,0,0,0,0,0,0,0,0,0,0,0,0,0,0,0,0,0,0,0,0,0,0,0,0,0,0,0,0,0,0,0,0,0,0,0,0,0,0,0,0,0,0,0,0,0,0,0,0,0,0,0,2.4147,2.4147,0,2.4206,2.4206,2.4207,2.4157,2.4155,2.4153,2.4151,2.4214,2.4218,2.4221,0,0,0,0,0,0,0,0,0,0,0,0,0,2.3992,2.3995,2.4146,2.4147,2.4148,2.4206,2.4206,2.4207,2.4157,2.4155,2.4152,2.415,2.4213,2.4217,2.4222,0,0,0,0,0,0,0,0,0,0,0,0,0,2.4056,2.3996,2.4146,2.413,2.4129,2.4205,2.4206,2.4207,2.4158,2.4155,2.4152,2.4149,2.4212,2.4217,2.4222,2.4319,0,0,2.4239,2.4241,0,0,0,0,0,0,0,0,2.4053,2.4062,2.4132,2.4131,2.413,2.4171,2.4175,2.4245,2.4159,2.4147,2.4151,2.4147,2.4202,2.4208,2.4227,2.4322,2.4324,2.4239,2.4243,2.4245,2.4247,0,0,0,0,0,0,0,2.4048,2.4059,2.417,2.4133,2.4132,2.412,2.4126,2.4188,2.4192,2.4148,2.4144,2.4152,2.4202,2.4221,2.4228,2.4325,2.4239,2.4244,2.4248,2.425,2.4501,2.4504,0,0,0,0,0,0,2.4045,2.4056,2.4168,2.4172,2.4083,2.4126,2.4132,2.4161,2.4191,2.4192,2.4154,2.4149,2.4214,2.4221,2.423,2.4344,2.4245,2.425,2.4253,2.4498,2.4502,2.4505,0,0,0,0,0,0,2.4042,2.4056,2.4166,2.4113,2.4126,2.4131,2.4165,2.4164,2.4183,2.4196,2.4196,2.4174,2.4211,2.4222,2.4296,2.4345,2.4253,2.4258,2.4494,2.4499,2.4504,2.4573,0,0,0,0,0,0,2.4038,2.4055,2.4091,2.4114,2.4129,2.4231,2.4168,2.4167,2.4193,2.4187,2.4214,2.4216,2.421,2.4289,2.4302,2.4351,2.4262,2.4489,2.4496,2.4502,2.4566,2.458,2.4591,0,0,0,0,0,2.4032,2.4109,2.4093,2.4107,2.4174,2.4234,2.4243,2.4233,2.4197,2.4234,2.4241,2.4215,2.4338,2.4297,2.4311,2.4363,2.4486,2.4494,2.4502,2.4561,2.4577,2.4591,0,0,0,0,0,0,2.4094,2.4112,2.4095,2.4181,2.4206,2.4226,2.4272,2.4251,2.4288,2.4281,2.4268,2.4275,2.4353,2.4365,2.4319,2.4457,2.4406,2.4417,2.4446,2.4462,2.4474,2.447,2.4266,0,0,0,0,0,2.4117,2.4163,2.4177,2.4252,2.4265,2.4267,2.4292,2.4282,2.4309,2.4319,2.4332,2.4359,2.4404,2.4433,2.4475,2.4568,2.4573,2.461,2.4623,2.4633,2.4642,2.4691,2.4708,2.4531,2.4531,2.453,0,0,2.4166,2.4182,2.4212,2.4265,2.4283,2.4332,2.4276,2.433,2.4366,2.4328,2.4398,2.4409,2.4438,2.4522,2.4559,2.4534,2.4692,2.4642,2.4651,2.4655,2.4701,2.4718,2.4733,2.4536,2.4535,2.4534,0,0,2.428,2.4297,2.4361,2.438,2.4408,2.4408,2.4423,2.4445,2.445,2.4521,2.4493,2.4535,2.4612,2.4634,2.4655,2.4776,2.4753,2.479,2.4855,2.4903,2.4917,2.4929,2.4971,2.4987,2.4799,2.4799,2.4799,0,2.4338,2.441,2.4396,2.4452,2.4476,2.4442,2.4506,2.4526,2.4566,2.4584,2.4555,2.4649,2.4667,2.4754,2.4784,2.4802,2.4819,2.4787,2.4916,2.4928,2.4939,2.4979,2.4996,2.4804,2.4803,2.4803,2.4802,0,2.4479,2.4529,2.4577,2.4615,2.4644,2.4704,2.47,2.4732,2.4719,2.4722,2.4794,2.4813,2.4857,2.4877,2.4866,2.4963,2.4947,2.4917,2.4866,2.496,2.4998,2.5014,2.481,2.4808,2.4807,2.4806,0,0,2.4635,2.4663,2.4681,2.4698,2.4726,2.4764,2.4822,2.4864,2.4891,2.492,2.4968,2.5033,2.5005,2.5029,2.502,2.5062,2.5155,2.5027,2.5027,2.505,2.5263,2.5285,2.5303,2.514,2.5143,2.5145,2.526,0,2.4749,2.4849,2.4838,2.4934,2.4979,2.4947,2.4997,2.502,2.5024,2.5064,2.5068,2.5114,2.5074,2.5088,2.5128,2.5136,2.5198,2.5127,2.5185,2.5187,2.5179,2.5323,2.5346,2.5454,2.5275,2.5277,2.5279,0,2.4897,2.4929,2.5029,2.5048,2.5067,2.5112,2.5149,2.5187,2.5212,2.5212,2.5238,2.5221,2.528,2.5227,2.5307,2.5259,2.5282,2.5289,2.5293,2.5298,2.5239,2.5331,2.5488,2.5504,2.5302,2.53,2.5299,0,2.5,2.5068,2.5136,2.5152,2.5176,2.5209,2.522,2.5242,2.5268,2.53,2.5316,2.5356,2.5378,2.5409,2.5403,2.5365,2.5485,2.5432,2.5486,2.5487,2.5513,2.5512,2.5675,2.5528,2.5528,2.5528,2.5528,0,2.5129,2.5191,2.5183,2.5225,2.5293,2.528,2.5348,2.5356,2.5375,2.5418,2.5393,2.5434,2.5424,2.5465,2.5461,2.5527,2.5538,2.5539,2.5537,2.5541,2.5541,2.5556,2.5549,2.5532,2.5531,2.553,2.553,0,2.5255,2.5252,2.5324,2.5341,2.5346,2.5396,2.541,2.545,2.5451,2.5506,2.5518,2.5521,2.5567,2.5564,2.5618,2.5615,2.5697,2.5686,2.5688,2.5686,2.574,2.5735,2.592,2.5943,2.5781,2.5783,2.5784,0,2.5338,2.5385,2.5406,2.5432,2.5446,2.5489,2.5514,2.5503,2.5531,2.5561,2.5597,2.5641,2.5676,2.5752,2.5759,2.5799,2.5789,2.5851,2.5795,2.5797,2.579,2.5787,2.5791,2.5862,2.5864,2.5865,2.5867,0,2.5485,2.548,2.5518,2.5554,2.5585,2.5613,2.5639,2.5663,2.5654,2.5686,2.5733,2.5759,2.5812,2.5856,2.5894,2.5907,2.5886,2.5884,2.5899,2.5903,2.5902,2.5903,2.5718,2.588,2.5879,2.5878,2.5877,2.5876,2.5592,2.5631,2.5652,2.5694,2.5711,2.5736,2.5773,2.5779,2.5817,2.5859,2.585,2.5902,2.5925,2.5973,2.5989,2.603,2.6008,2.603,2.6035,2.6041,2.6046,2.5895,2.6037,2.6037,2.6036,2.6036,2.6036,0,2.5736,2.5748,2.5786,2.5822,2.5855,2.5831,2.5858,2.5887,2.5933,2.5956,2.599,2.6043,2.6085,2.6095,2.6135,2.6166,2.6157,2.6177,2.6174,2.6177,2.6064,2.6047,2.6183,2.6183,2.6183,2.6183,2.6183,2.6183,2.5816,2.5881,2.5879,2.5953,2.5963,2.6013,2.6031,2.6053,2.6071,2.6131,2.6165,2.6171,2.6188,2.6229,2.6267,2.6268,2.6284,2.6308,2.6306,2.62,2.6186,2.6172,2.6155,2.6312,2.6312,2.6416,2.6417,2.6418]}]]